Regional Weather Roundup
Issued by NWS Albany, NY

Home | Current Version | Previous Version | Text Only | Print | Product List | Glossary On
Versions: 1 2 3 4 5 6 7 8 9 10 11 12 13 14 15 16 17 18 19 20 21 22 23 24 25 26 27 28 29 30 31 32 33 34 35 36 37 38 39 40 41 42 43 44 45 46 47 48 49 50
000
ASUS41 KALY 212110
RWRALY

NEW YORK STATE HOURLY WEATHER ROUNDUP
NATIONAL WEATHER SERVICE ALBANY NY
500 PM EDT MON MAY 21 2018

NOTE: "FAIR" INDICATES FEW OR NO CLOUDS BELOW 12,000 FEET WITH NO
SIGNIFICANT WEATHER AND/OR NO OBSTRUCTIONS TO VISIBILITY.

NYZ032-033-038>043-046>054-057>066-NYZ062>081-082-084-212200-
EAST


CITY           SKY/WX    TMP DP  RH WIND       PRES   REMARKS
ALBANY         FAIR      77  42  28 SW8       30.11F
GLENS FALLS    FAIR      76  47  35 SE8       30.07F
POUGHKEEPSIE   FAIR      77  47  34 VRB7      30.10F
NEWBURGH       SUNNY     77  48  36 VRB5      30.13F
MONTGOMERY     FAIR      77  48  35 S8        30.10F
WHITE PLAINS   FAIR      77  36  22 VRB5      30.12F
ISLIP          PTSUNNY   70  53  54 S14       30.14S
NEW YORK CITY  FAIR      74  47  38 S14       30.13S
CENTRAL PARK   FAIR      73  47  39 CALM      30.16S
$$

NYZ005>009-017-018-044>046-055-056-212200-
CENTRAL


CITY           SKY/WX    TMP DP  RH WIND       PRES   REMARKS
FULTON         FAIR      73  45  36 N8        30.16F
SYRACUSE       FAIR      74  46  36 VRB5      30.14F
ROME           FAIR      73  44  35 W8        30.16F
ELMIRA         FAIR      76  39  26 SE3       30.15F
BINGHAMTON     FAIR      71  44  37 VRB3      30.17F
$$

NYZ026>034-041>043-087-212200-
NORTH


CITY           SKY/WX    TMP DP  RH WIND       PRES   REMARKS
WATERTOWN      FAIR      66  37  34 SW10      30.16F
FORT DRUM      NOT AVBL
OGDENSBURG     FAIR      73  42  32 SW12G21   30.11S
MASSENA        FAIR      76  47  35 SW14G22   30.09R
SARANAC LAKE   FAIR      72  40  31 W9G18     30.11F
PLATTSBURGH    FAIR      79  39  23 NW10G21   30.05S
$$

NYZ001>004-010>016-019>021-085-212200-
WEST


CITY           SKY/WX    TMP DP  RH WIND       PRES   REMARKS
NIAGARA FALLS  FAIR      74  50  42 NE10      30.14F
BUFFALO        PTSUNNY   75  41  29 E9        30.14F
DUNKIRK        FAIR      69  43  38 NE6       30.14F
JAMESTOWN      FAIR      73  41  31 E5        30.16F
WELLSVILLE     FAIR      74  36  25 NE3       30.19F
ROCHESTER      PTSUNNY   75  45  34 N6        30.17S
PENN YAN       FAIR      73  36  25 N3        30.18F
$$

             KEY
       WCI = WIND CHILL INDEX
       VSB = VISIBILITY
       HX  = HEAT INDEX
$$



USA.gov is the U.S. government's official web portal to all federal, state and local government web resources and services.